Regional Weather Roundup
Issued by NWS

Current Version | Previous Version | Text Only | Print | Product List | Glossary Off
Versions: 1 2 3 4 5 6 7 8 9 10 11 12 13 14 15 16 17 18 19 20 21 22 23 24 25 26 27 28 29 30 31 32 33 34 35 36 37 38 39 40 41 42 43 44 45 46 47 48 49 50

000
ASUS43 KLMK 192110
RWRKY
KENTUCKY REGIONAL WEATHER ROUNDUP
NATIONAL WEATHER SERVICE LOUISVILLE KY
500 PM EDT FRI SEP 19 2014

NOTE "FAIR" INDICATES FEW OR NO CLOUDS BELOW 12,000 FEET
WITH NO SIGNIFICANT WEATHER AND/OR OBSTRUCTIONS TO VISIBILITY.

KYZ001>023-026-027-061>063-070>075-192200-
WESTERN AND SOUTH CENTRAL KENTUCKY

CITY           SKY/WX    TMP DP  RH WIND       PRES   REMARKS
PADUCAH        SUNNY     85  58  39 E5        30.01S
HENDERSON      SUNNY     75  54  46 E9        30.03S
OWENSBORO      SUNNY     81  56  42 SE12      30.03F
HOPKINSVILLE   MOSUNNY   82  60  47 E5        30.02S
BOWLING GREEN  MOSUNNY   81  59  47 S6        30.04F
GLASGOW        MOSUNNY   82  56  41 E3        30.05S
$$

KYZ024-025-028>034-038-045-046-053-192200-
NORTH CENTRAL KENTUCKY

CITY           SKY/WX    TMP DP  RH WIND       PRES   REMARKS
LOUISVILLE/SDF MOSUNNY   79  52  38 SE9       30.05F
LOUISVILLE/LOU SUNNY     78  50  37 SE7       30.06F
FORT KNOX      MOSUNNY   77  57  49 VRB6      30.05F
$$

KYZ035>037-039>044-047>052-055>060-089>105-192200-
NORTHEAST KENTUCKY

CITY           SKY/WX    TMP DP  RH WIND       PRES   REMARKS
LEXINGTON      SUNNY     79  55  43 E3        30.09F
COVINGTON      MOSUNNY   76  47  35 SE7       30.09F
FRANKFORT      SUNNY     77  53  43 CALM      30.08F
$$

KYZ054-064>069-076>088-106>120-192200-
SOUTHEAST KENTUCKY

CITY           SKY/WX    TMP DP  RH WIND       PRES   REMARKS
JACKSON        MOSUNNY   77  62  59 CALM      30.10F
LONDON         MOSUNNY   79  58  48 S6        30.09S
SOMERSET       SUNNY     79  54  41 SW3       30.08F
MIDDLESBORO    SUNNY     80  59  47 SW3       30.09S
MONTICELLO     PTCLDY    82  58  43 SE8       30.08F
$$




USA.gov is the U.S. government's official web portal to all federal, state and local government web resources and services.